Year,Month,Day,Hour,Minute,Value (Times are PST for temperature in C)
2012,08,05,07,13,18.20
2012,08,05,07,14,18.20
2012,08,05,07,15,18.20
2012,08,05,07,16,18.20
2012,08,05,07,17,18.30
2012,08,05,07,18,18.30
2012,08,05,07,19,18.30
2012,08,05,07,20,18.40
2012,08,05,07,21,18.40
2012,08,05,07,22,18.40
2012,08,05,07,23,18.50
2012,08,05,07,24,18.50
2012,08,05,07,25,18.50
2012,08,05,07,26,18.60
2012,08,05,07,27,18.60
2012,08,05,07,28,18.60
2012,08,05,07,29,18.60
2012,08,05,07,30,18.60
2012,08,05,07,31,18.60
2012,08,05,07,32,18.60
2012,08,05,07,33,18.60
2012,08,05,07,34,18.60
2012,08,05,07,35,18.70
2012,08,05,07,36,18.70
2012,08,05,07,37,18.70
2012,08,05,07,38,18.70
2012,08,05,07,39,18.80
2012,08,05,07,40,18.80
2012,08,05,07,41,18.80
2012,08,05,07,42,18.90
2012,08,05,07,43,18.90
2012,08,05,07,44,18.90
2012,08,05,07,45,18.90
2012,08,05,07,46,18.90
2012,08,05,07,47,19.00
2012,08,05,07,48,18.90
2012,08,05,07,49,19.00
2012,08,05,07,50,19.00
2012,08,05,07,51,19.00
2012,08,05,07,52,19.00
2012,08,05,07,53,19.00
2012,08,05,07,54,19.00
2012,08,05,07,55,19.00
2012,08,05,07,56,19.00
2012,08,05,07,57,19.00
2012,08,05,07,58,19.00
2012,08,05,07,59,19.00
2012,08,05,08,00,19.00
2012,08,05,08,01,19.00
2012,08,05,08,02,19.00
2012,08,05,08,03,19.10
2012,08,05,08,04,19.10
2012,08,05,08,05,19.10
2012,08,05,08,06,19.20
2012,08,05,08,07,19.30
2012,08,05,08,08,19.30
2012,08,05,08,09,19.40
2012,08,05,08,10,19.50
2012,08,05,08,11,19.60
2012,08,05,08,12,19.70
2012,08,05,08,13,19.80
2012,08,05,08,14,19.80
2012,08,05,08,15,19.90
2012,08,05,08,16,20.00
2012,08,05,08,17,20.10
2012,08,05,08,18,20.20
2012,08,05,08,19,20.30
2012,08,05,08,20,20.30
2012,08,05,08,21,20.40
2012,08,05,08,22,20.50
2012,08,05,08,23,20.60
2012,08,05,08,24,20.70
2012,08,05,08,25,20.80
2012,08,05,08,26,20.80
2012,08,05,08,27,20.90
2012,08,05,08,28,21.00
2012,08,05,08,29,21.10
2012,08,05,08,30,21.20
2012,08,05,08,31,21.30
2012,08,05,08,32,21.40
2012,08,05,08,33,21.50
2012,08,05,08,34,21.50
2012,08,05,08,35,21.70
2012,08,05,08,36,21.70
2012,08,05,08,37,21.80
2012,08,05,08,38,21.80
2012,08,05,08,39,21.90
2012,08,05,08,40,22.00
2012,08,05,08,41,22.10
2012,08,05,08,42,22.10
2012,08,05,08,43,22.20
2012,08,05,08,44,22.20
2012,08,05,08,45,22.30
2012,08,05,08,46,22.40
2012,08,05,08,47,22.50
2012,08,05,08,48,22.60
2012,08,05,08,49,22.70
2012,08,05,08,50,22.80
2012,08,05,08,51,22.90
2012,08,05,08,52,22.90
2012,08,05,08,53,23.00
2012,08,05,08,54,23.10
2012,08,05,08,55,23.10
2012,08,05,08,56,23.20
2012,08,05,08,57,23.20
2012,08,05,08,58,23.30
2012,08,05,08,59,23.30
2012,08,05,09,00,23.30
2012,08,05,09,01,23.40
2012,08,05,09,02,23.50
2012,08,05,09,03,23.50
2012,08,05,09,04,23.60
2012,08,05,09,05,23.70
2012,08,05,09,06,23.70
2012,08,05,09,07,23.80
2012,08,05,09,08,23.90
2012,08,05,09,09,23.90
2012,08,05,09,10,24.00
2012,08,05,09,11,24.10
2012,08,05,09,12,24.20
2012,08,05,09,13,24.20
2012,08,05,09,14,24.30
2012,08,05,09,15,24.30
2012,08,05,09,16,24.30
2012,08,05,09,17,24.30
2012,08,05,09,18,24.30
2012,08,05,09,19,24.40
2012,08,05,09,20,24.40
2012,08,05,09,21,24.40
2012,08,05,09,22,24.40
2012,08,05,09,23,24.40
2012,08,05,09,24,24.40
2012,08,05,09,25,24.40
2012,08,05,09,26,24.40
2012,08,05,09,27,24.30
2012,08,05,09,28,24.30
2012,08,05,09,29,24.30
2012,08,05,09,30,24.30
2012,08,05,09,31,24.40
2012,08,05,09,32,24.50
2012,08,05,09,33,24.50
2012,08,05,09,34,24.60
2012,08,05,09,35,24.60
2012,08,05,09,36,24.60
2012,08,05,09,37,24.60
2012,08,05,09,38,24.70
2012,08,05,09,39,24.70
2012,08,05,09,40,24.80
2012,08,05,09,41,24.90
2012,08,05,09,42,25.00
2012,08,05,09,43,25.10
2012,08,05,09,44,25.20
2012,08,05,09,45,25.20
2012,08,05,09,46,25.30
2012,08,05,09,47,25.40
2012,08,05,09,48,25.50
2012,08,05,09,49,25.50
2012,08,05,09,50,25.60
2012,08,05,09,51,25.70
2012,08,05,09,52,25.70
2012,08,05,09,53,25.70
2012,08,05,09,54,25.70
2012,08,05,09,55,25.70
2012,08,05,09,56,25.70
2012,08,05,09,57,25.60
2012,08,05,09,58,25.50
2012,08,05,09,59,25.40
2012,08,05,10,00,25.40
2012,08,05,10,01,25.40
2012,08,05,10,02,25.40
2012,08,05,10,03,25.40
2012,08,05,10,04,25.40
2012,08,05,10,05,25.40
2012,08,05,10,06,25.30
2012,08,05,10,07,25.30
2012,08,05,10,08,25.30
2012,08,05,10,09,25.30
2012,08,05,10,10,25.30
2012,08,05,10,11,25.30
2012,08,05,10,12,25.30
2012,08,05,10,13,25.30
2012,08,05,10,14,25.30
2012,08,05,10,15,25.40
2012,08,05,10,16,25.40
2012,08,05,10,17,25.40
2012,08,05,10,18,25.50
2012,08,05,10,19,25.50
2012,08,05,10,20,25.50
2012,08,05,10,21,25.60
2012,08,05,10,22,25.70
2012,08,05,10,23,25.80
2012,08,05,10,24,25.80
2012,08,05,10,25,25.80
2012,08,05,10,26,25.90
2012,08,05,10,27,25.90
2012,08,05,10,28,26.00
2012,08,05,10,29,26.10
2012,08,05,10,30,26.20
2012,08,05,10,31,26.20
2012,08,05,10,32,26.30
2012,08,05,10,33,26.40
2012,08,05,10,34,26.40
2012,08,05,10,35,26.50
2012,08,05,10,36,26.60
2012,08,05,10,37,26.70
2012,08,05,10,38,26.80
2012,08,05,10,39,26.90
2012,08,05,10,40,27.00
2012,08,05,10,41,27.20
2012,08,05,10,42,27.30
2012,08,05,10,43,27.30
2012,08,05,10,44,27.40
2012,08,05,10,45,27.50
2012,08,05,10,46,27.50
2012,08,05,10,47,27.40
2012,08,05,10,48,27.40
2012,08,05,10,49,27.50
2012,08,05,10,50,27.50
2012,08,05,10,51,27.50
2012,08,05,10,52,27.50
2012,08,05,10,53,27.50
2012,08,05,10,54,27.60
2012,08,05,10,55,27.70
2012,08,05,10,56,27.80
2012,08,05,10,57,27.80
2012,08,05,10,58,27.80
2012,08,05,10,59,27.90
2012,08,05,11,00,27.80
2012,08,05,11,01,27.70
2012,08,05,11,02,27.60
2012,08,05,11,03,27.60
2012,08,05,11,04,27.60
2012,08,05,11,05,27.70
2012,08,05,11,06,27.80
2012,08,05,11,07,27.90
2012,08,05,11,08,27.90
2012,08,05,11,09,28.00
2012,08,05,11,10,28.10
2012,08,05,11,11,28.20
2012,08,05,11,12,28.20
2012,08,05,11,13,28.00
2012,08,05,11,14,27.80
2012,08,05,11,15,27.70
2012,08,05,11,16,27.50
2012,08,05,11,17,27.50
2012,08,05,11,18,27.40
2012,08,05,11,19,27.50
2012,08,05,11,20,27.60
2012,08,05,11,21,27.70
2012,08,05,11,22,27.80
2012,08,05,11,23,27.60
2012,08,05,11,24,27.40
2012,08,05,11,25,27.20
2012,08,05,11,26,27.10
2012,08,05,11,27,27.20
2012,08,05,11,28,27.20
2012,08,05,11,29,27.30
2012,08,05,11,30,27.30
2012,08,05,11,31,27.30
2012,08,05,11,32,27.30
2012,08,05,11,33,27.30
2012,08,05,11,34,27.30
2012,08,05,11,35,27.30
2012,08,05,11,36,27.30
2012,08,05,11,37,27.40
2012,08,05,11,38,27.40
2012,08,05,11,39,27.40
2012,08,05,11,40,27.30
2012,08,05,11,41,27.10
2012,08,05,11,42,26.90
2012,08,05,11,43,26.80
2012,08,05,11,44,26.80
2012,08,05,11,45,26.70
2012,08,05,11,46,26.60
2012,08,05,11,47,26.50
2012,08,05,11,48,26.40
2012,08,05,11,49,26.40
2012,08,05,11,50,26.50
2012,08,05,11,51,26.70
2012,08,05,11,52,26.80
2012,08,05,11,53,26.90
2012,08,05,11,54,27.00
2012,08,05,11,55,27.10
2012,08,05,11,56,27.10
2012,08,05,11,57,27.20
2012,08,05,11,58,27.20
2012,08,05,11,59,27.20
2012,08,05,12,00,27.20
2012,08,05,12,01,27.30
2012,08,05,12,02,27.50
2012,08,05,12,03,27.50
2012,08,05,12,04,27.50
2012,08,05,12,05,27.50
2012,08,05,12,06,27.40
2012,08,05,12,07,27.50
2012,08,05,12,08,27.60
2012,08,05,12,09,27.60
2012,08,05,12,10,27.60
2012,08,05,12,11,27.60
2012,08,05,12,12,27.60
2012,08,05,12,13,27.60
2012,08,05,12,14,27.50
2012,08,05,12,15,27.50
2012,08,05,12,16,27.60
2012,08,05,12,17,27.70
2012,08,05,12,18,27.70
2012,08,05,12,19,27.70
2012,08,05,12,20,27.80
2012,08,05,12,21,27.80
2012,08,05,12,22,27.80
2012,08,05,12,23,27.80
2012,08,05,12,24,27.90
2012,08,05,12,25,27.90
2012,08,05,12,26,27.90
2012,08,05,12,27,27.80
2012,08,05,12,28,27.70
2012,08,05,12,29,27.60
2012,08,05,12,30,27.70
2012,08,05,12,31,27.60
2012,08,05,12,32,27.40
2012,08,05,12,33,27.30
2012,08,05,12,34,27.30
2012,08,05,12,35,27.30
2012,08,05,12,36,27.40
2012,08,05,12,37,27.60
2012,08,05,12,38,27.70
2012,08,05,12,39,27.70
2012,08,05,12,40,27.80
2012,08,05,12,41,27.70
2012,08,05,12,42,27.60
2012,08,05,12,43,27.50
2012,08,05,12,44,27.40
2012,08,05,12,45,27.40
2012,08,05,12,46,27.30
2012,08,05,12,47,27.30
2012,08,05,12,48,27.20
2012,08,05,12,49,27.10
2012,08,05,12,50,27.00
2012,08,05,12,51,26.90
2012,08,05,12,52,26.90
2012,08,05,12,53,26.80
2012,08,05,12,54,26.80
2012,08,05,12,55,26.90
2012,08,05,12,56,26.90
2012,08,05,12,57,27.00
2012,08,05,12,58,27.20
2012,08,05,12,59,27.40
2012,08,05,13,00,27.70
2012,08,05,13,01,27.90
2012,08,05,13,02,28.00
2012,08,05,13,03,27.90
2012,08,05,13,04,27.80
2012,08,05,13,05,27.70
2012,08,05,13,06,27.70
2012,08,05,13,07,27.60
2012,08,05,13,08,27.40
2012,08,05,13,09,27.40
2012,08,05,13,10,27.40
2012,08,05,13,11,27.50
2012,08,05,13,12,27.70
2012,08,05,13,13,27.80
2012,08,05,13,14,27.90
2012,08,05,13,15,28.00
2012,08,05,13,16,28.20
2012,08,05,13,17,28.40
2012,08,05,13,18,28.70
2012,08,05,13,19,28.90
2012,08,05,13,20,29.20
2012,08,05,13,21,29.40
2012,08,05,13,22,29.40
2012,08,05,13,23,29.40
2012,08,05,13,24,29.30
2012,08,05,13,25,29.40
2012,08,05,13,26,29.40
2012,08,05,13,27,29.50
2012,08,05,13,28,29.50
2012,08,05,13,29,29.50
2012,08,05,13,30,29.40
2012,08,05,13,31,29.40
2012,08,05,13,32,29.40
2012,08,05,13,33,29.30
2012,08,05,13,34,29.30
2012,08,05,13,35,29.30
2012,08,05,13,36,29.20
2012,08,05,13,37,29.10
2012,08,05,13,38,29.20
2012,08,05,13,39,29.20
2012,08,05,13,40,29.20
2012,08,05,13,41,29.20
2012,08,05,13,42,29.30
2012,08,05,13,43,29.40
2012,08,05,13,44,29.40
2012,08,05,13,45,29.30
2012,08,05,13,46,29.30
2012,08,05,13,47,29.10
2012,08,05,13,48,29.10
2012,08,05,13,49,29.10
2012,08,05,13,50,29.20
2012,08,05,13,51,29.20
2012,08,05,13,52,29.10
2012,08,05,13,53,29.10
2012,08,05,13,54,29.00
2012,08,05,13,55,29.00
2012,08,05,13,56,29.00
2012,08,05,13,57,29.10
2012,08,05,13,58,29.20
2012,08,05,13,59,29.30
2012,08,05,14,00,29.40
2012,08,05,14,01,29.50
2012,08,05,14,02,29.50
2012,08,05,14,03,29.50
2012,08,05,14,04,29.50
2012,08,05,14,05,29.70
2012,08,05,14,06,29.80
2012,08,05,14,07,29.70
2012,08,05,14,08,29.70
2012,08,05,14,09,29.80
2012,08,05,14,10,29.80
2012,08,05,14,11,29.90
2012,08,05,14,12,30.00
2012,08,05,14,13,30.00
2012,08,05,14,14,30.10
2012,08,05,14,15,30.10
2012,08,05,14,16,30.10
2012,08,05,14,17,30.10
2012,08,05,14,18,30.20
2012,08,05,14,19,30.30
2012,08,05,14,20,30.30
2012,08,05,14,21,30.40
2012,08,05,14,22,30.40
2012,08,05,14,23,30.40
2012,08,05,14,24,30.20
2012,08,05,14,25,30.10
2012,08,05,14,26,30.00
2012,08,05,14,27,29.90
2012,08,05,14,28,29.80
2012,08,05,14,29,29.70
2012,08,05,14,30,29.60
2012,08,05,14,31,29.50
2012,08,05,14,32,29.60
2012,08,05,14,33,29.70
2012,08,05,14,34,29.90
2012,08,05,14,35,30.00
2012,08,05,14,36,30.20
2012,08,05,14,37,30.30
2012,08,05,14,38,30.50
2012,08,05,14,39,30.60
2012,08,05,14,40,30.60
2012,08,05,14,41,30.60
2012,08,05,14,42,30.50
2012,08,05,14,43,30.50
2012,08,05,14,44,30.60
2012,08,05,14,45,30.60
2012,08,05,14,46,30.70
2012,08,05,14,47,30.60
2012,08,05,14,48,30.60
2012,08,05,14,49,30.80
2012,08,05,14,50,30.80
2012,08,05,14,51,30.80
2012,08,05,14,52,30.60
2012,08,05,14,53,30.60
2012,08,05,14,54,30.60
2012,08,05,14,55,30.60
2012,08,05,14,56,30.70
2012,08,05,14,57,30.70
2012,08,05,14,58,30.70
2012,08,05,14,59,30.60
2012,08,05,15,00,30.60
2012,08,05,15,01,30.60
2012,08,05,15,02,30.50
2012,08,05,15,03,30.50
2012,08,05,15,04,30.50
2012,08,05,15,05,30.50
2012,08,05,15,06,30.60
2012,08,05,15,07,30.60
2012,08,05,15,08,30.70
2012,08,05,15,09,30.80
2012,08,05,15,10,30.90
2012,08,05,15,11,30.90
2012,08,05,15,12,30.90
2012,08,05,15,13,30.90
2012,08,05,15,14,30.80
2012,08,05,15,15,30.70
2012,08,05,15,16,30.60
2012,08,05,15,17,30.50
2012,08,05,15,18,30.30
2012,08,05,15,19,30.30
2012,08,05,15,20,30.40
2012,08,05,15,21,30.50
2012,08,05,15,22,30.50
2012,08,05,15,23,30.60
2012,08,05,15,24,30.70
2012,08,05,15,25,30.70
2012,08,05,15,26,30.80
2012,08,05,15,27,30.80
2012,08,05,15,28,30.80
2012,08,05,15,29,30.80
2012,08,05,15,30,30.80
2012,08,05,15,31,30.80
2012,08,05,15,32,30.70
2012,08,05,15,33,30.70
2012,08,05,15,34,30.80
2012,08,05,15,35,30.90
2012,08,05,15,36,31.00
2012,08,05,15,37,31.00
2012,08,05,15,38,31.00
2012,08,05,15,39,31.00
2012,08,05,15,40,31.00
2012,08,05,15,41,31.10
2012,08,05,15,42,31.10
2012,08,05,15,43,31.00
2012,08,05,15,44,30.90
2012,08,05,15,45,30.90
2012,08,05,15,46,30.90
2012,08,05,15,47,30.90
2012,08,05,15,48,30.90
2012,08,05,15,49,30.90
2012,08,05,15,50,30.90
2012,08,05,15,51,30.90
2012,08,05,15,52,30.70
2012,08,05,15,53,30.50
2012,08,05,15,54,30.40
2012,08,05,15,55,30.40
2012,08,05,15,56,30.40
2012,08,05,15,57,30.40
2012,08,05,15,58,30.30
2012,08,05,15,59,30.30
2012,08,05,16,00,30.30
2012,08,05,16,01,30.30
2012,08,05,16,02,30.30
2012,08,05,16,03,30.20
2012,08,05,16,04,30.20
2012,08,05,16,05,30.10
2012,08,05,16,06,30.00
2012,08,05,16,07,30.00
2012,08,05,16,08,30.10
2012,08,05,16,09,30.20
2012,08,05,16,10,30.20
2012,08,05,16,11,30.20
2012,08,05,16,12,30.20
2012,08,05,16,13,30.10
2012,08,05,16,14,30.00
2012,08,05,16,15,29.90
2012,08,05,16,16,29.80
2012,08,05,16,17,29.60
2012,08,05,16,18,29.60
2012,08,05,16,19,29.60
2012,08,05,16,20,29.60
2012,08,05,16,21,29.50
2012,08,05,16,22,29.40
2012,08,05,16,23,29.40
2012,08,05,16,24,29.30
2012,08,05,16,25,29.40
2012,08,05,16,26,29.50
2012,08,05,16,27,29.60
2012,08,05,16,28,29.70
2012,08,05,16,29,29.80
2012,08,05,16,30,30.00
2012,08,05,16,31,30.10
2012,08,05,16,32,30.10
2012,08,05,16,33,30.20
2012,08,05,16,34,30.10
2012,08,05,16,35,30.00
2012,08,05,16,36,30.00
2012,08,05,16,37,30.00
2012,08,05,16,38,30.00
2012,08,05,16,39,30.10
2012,08,05,16,40,30.10
2012,08,05,16,41,30.20
2012,08,05,16,42,30.30
2012,08,05,16,43,30.30
2012,08,05,16,44,30.30
2012,08,05,16,45,30.30
2012,08,05,16,46,30.30
2012,08,05,16,47,30.30
2012,08,05,16,48,30.20
2012,08,05,16,49,30.20
2012,08,05,16,50,30.10
2012,08,05,16,51,30.10
2012,08,05,16,52,30.10
2012,08,05,16,53,30.10
2012,08,05,16,54,30.10
2012,08,05,16,55,30.20
2012,08,05,16,56,30.20
2012,08,05,16,57,30.20
2012,08,05,16,58,30.20
2012,08,05,16,59,30.20
2012,08,05,17,00,30.20
2012,08,05,17,01,30.20
2012,08,05,17,02,30.20
2012,08,05,17,03,30.20
2012,08,05,17,04,30.10
2012,08,05,17,05,30.00
2012,08,05,17,06,29.80
2012,08,05,17,07,29.70
2012,08,05,17,08,29.60
2012,08,05,17,09,29.60
2012,08,05,17,10,29.60
2012,08,05,17,11,29.60
2012,08,05,17,12,29.60
2012,08,05,17,13,29.50
2012,08,05,17,14,29.40
2012,08,05,17,15,29.40
2012,08,05,17,16,29.40
2012,08,05,17,17,29.40
2012,08,05,17,18,29.40
2012,08,05,17,19,29.50
2012,08,05,17,20,29.60
2012,08,05,17,21,29.70
2012,08,05,17,22,29.80
2012,08,05,17,23,29.80
2012,08,05,17,24,29.90
2012,08,05,17,25,29.90
2012,08,05,17,26,29.80
2012,08,05,17,27,29.70
2012,08,05,17,28,29.70
2012,08,05,17,29,29.70
2012,08,05,17,30,29.70
2012,08,05,17,31,29.80
2012,08,05,17,32,29.80
2012,08,05,17,33,29.90
2012,08,05,17,34,29.90
2012,08,05,17,35,30.00
2012,08,05,17,36,30.00
2012,08,05,17,37,29.90
2012,08,05,17,38,29.90
2012,08,05,17,39,29.80
2012,08,05,17,40,29.80
2012,08,05,17,41,29.80
2012,08,05,17,42,29.70
2012,08,05,17,43,29.60
2012,08,05,17,44,29.60
2012,08,05,17,45,29.70
2012,08,05,17,46,29.70
2012,08,05,17,47,29.70
2012,08,05,17,48,29.80
2012,08,05,17,49,29.80
2012,08,05,17,50,29.80
2012,08,05,17,51,29.80
2012,08,05,17,52,29.80
2012,08,05,17,53,29.80
2012,08,05,17,54,29.80
2012,08,05,17,55,29.80
2012,08,05,17,56,29.80
2012,08,05,17,57,29.80
